TimeCST,TemperatureF,Dew PointF,Humidity,Sea Level PressureIn,VisibilityMPH,Wind Direction,Wind SpeedMPH,Gust SpeedMPH,PrecipitationIn,Events,Conditions,WindDirDegrees,DateUTC
12:51 AM,64.9,62.1,90,30.10,10.0,SSE,8.1,-,N/A,,Partly Cloudy,160,2013-01-26 06:51:00
1:51 AM,64.9,62.1,90,30.10,10.0,SSE,10.4,-,N/A,,Clear,160,2013-01-26 07:51:00
2:51 AM,64.0,61.0,90,30.09,9.0,SSE,8.1,-,N/A,,Clear,150,2013-01-26 08:51:00
3:51 AM,64.0,61.0,90,30.08,9.0,SSE,10.4,-,N/A,,Partly Cloudy,160,2013-01-26 09:51:00
4:51 AM,64.0,61.0,90,30.08,9.0,SSE,10.4,-,N/A,,Partly Cloudy,150,2013-01-26 10:51:00
5:51 AM,64.0,61.0,90,30.09,9.0,SSE,9.2,-,N/A,,Clear,150,2013-01-26 11:51:00
6:51 AM,64.0,61.0,90,30.10,10.0,SSE,10.4,-,N/A,,Clear,160,2013-01-26 12:51:00
7:51 AM,64.0,61.0,90,30.12,10.0,SSE,9.2,-,N/A,,Partly Cloudy,150,2013-01-26 13:51:00
8:51 AM,69.1,64.0,84,30.13,10.0,South,12.7,-,N/A,,Scattered Clouds,170,2013-01-26 14:51:00
9:51 AM,73.9,63.0,68,30.14,10.0,South,18.4,-,N/A,,Scattered Clouds,170,2013-01-26 15:51:00
10:11 AM,75.2,62.6,65,30.14,10.0,SSE,20.7,-,N/A,,Mostly Cloudy,160,2013-01-26 16:11:00
10:47 AM,77.0,62.6,61,30.14,10.0,South,20.7,-,N/A,,Scattered Clouds,180,2013-01-26 16:47:00
10:51 AM,77.0,62.1,60,30.14,10.0,South,21.9,-,N/A,,Scattered Clouds,180,2013-01-26 16:51:00
11:51 AM,80.1,61.0,52,30.12,10.0,SSE,21.9,-,N/A,,Partly Cloudy,160,2013-01-26 17:51:00
12:51 PM,81.0,57.9,45,30.09,10.0,SSE,23.0,29.9,N/A,,Partly Cloudy,160,2013-01-26 18:51:00
1:51 PM,81.0,59.0,47,30.08,10.0,SSE,23.0,29.9,N/A,,Partly Cloudy,160,2013-01-26 19:51:00
2:51 PM,80.6,57.2,45,30.06,10.0,SSE,23.0,29.9,N/A,,Partly Cloudy,150,2013-01-26 20:51:00
3:51 PM,79.0,57.9,48,30.05,10.0,SE,24.2,-,N/A,,Partly Cloudy,140,2013-01-26 21:51:00
4:51 PM,75.9,59.0,56,30.05,10.0,SE,25.3,-,N/A,,Partly Cloudy,140,2013-01-26 22:51:00
5:51 PM,73.0,59.0,61,30.06,10.0,SE,17.3,26.5,N/A,,Clear,140,2013-01-26 23:51:00
6:51 PM,70.0,61.0,73,30.06,10.0,SE,15.0,-,N/A,,Clear,130,2013-01-27 00:51:00
7:51 PM,68.0,61.0,78,30.07,10.0,SE,13.8,-,N/A,,Clear,130,2013-01-27 01:51:00
8:51 PM,66.9,61.0,81,30.08,10.0,SE,11.5,-,N/A,,Clear,130,2013-01-27 02:51:00
9:51 PM,66.9,61.0,81,30.10,10.0,SE,11.5,-,N/A,,Clear,140,2013-01-27 03:51:00
10:51 PM,66.0,60.1,81,30.10,10.0,SE,9.2,-,N/A,,Clear,140,2013-01-27 04:51:00
11:51 PM,64.9,60.1,84,30.09,10.0,SE,9.2,-,N/A,,Clear,140,2013-01-27 05:51:00